#timestamp,LO_Frequency,Hit,Temp,Hum 
1480125615.5,286047066.6,N,0.0,0.0
1480125635.3,286047066.1,N,0.0,0.0
1480125655.2,286047065.5,N,0.0,0.0
1480125675.9,286047065.7,N,0.0,0.0
1480125695.7,286047064.9,N,0.0,0.0
1480125715.6,286047062.3,N,0.0,0.0
1480125735.4,286047061.0,N,0.0,0.0
1480125755.2,286047057.9,N,0.0,0.0
1480125775.1,286047055.8,N,0.0,0.0
1480125776.0,286047055.8,N,0.0,0.0
1480125795.8,286047059.0,N,0.0,0.0
1480125815.7,286047063.4,N,0.0,0.0
1480125835.5,286047065.2,N,0.0,0.0
1480125855.3,286047066.8,N,0.0,0.0
1480125875.2,286047068.3,N,0.0,0.0
1480125895.0,286047066.9,N,0.0,0.0
1480125895.9,286047066.9,N,0.0,0.0
1480125915.8,286047069.4,N,0.0,0.0
1480125935.6,286047068.2,N,0.0,0.0
1480125955.4,286047068.2,N,0.0,0.0
1480125975.3,286047065.9,N,0.0,0.0
1480125995.1,286047064.7,N,0.0,0.0
1480126015.8,286047065.2,N,0.0,0.0
1480126035.7,286047062.1,N,0.0,0.0
1480126055.5,286047062.2,N,0.0,0.0
1480126075.4,286047064.4,N,0.0,0.0
1480126095.2,286047063.3,N,0.0,0.0
1480126115.0,286047063.8,N,0.0,0.0
1480126115.9,286047063.8,N,0.0,0.0
1480126135.8,286047065.9,N,0.0,0.0
1480126155.6,286047067.8,N,0.0,0.0
1480126175.4,286047067.1,N,0.0,0.0
1480126195.3,286047068.2,N,0.0,0.0
1480126215.1,286047066.5,N,0.0,0.0
1480126235.9,286047065.1,N,0.0,0.0
1480126255.7,286047064.2,N,0.0,0.0
1480126275.5,286047062.2,N,0.0,0.0
1480126295.4,286047062.3,N,0.0,0.0
1480126315.2,286047062.1,N,0.0,0.0
1480126335.0,286047064.3,N,0.0,0.0
1480126336.0,286047064.3,N,0.0,0.0
1480126355.8,286047065.8,N,0.0,0.0
1480126375.6,286047066.2,N,0.0,0.0
1480126395.5,286047062.5,N,0.0,0.0
1480126415.3,286047063.9,N,0.0,0.0
1480126435.1,286047068.3,N,0.0,0.0
1480126455.9,286047067.0,N,0.0,0.0
1480126475.7,286047068.8,N,0.0,0.0
1480126495.6,286047071.3,N,0.0,0.0
1480126515.4,286047071.5,N,0.0,0.0
1480126535.2,286047066.9,N,0.0,0.0
1480126555.1,286047063.7,N,0.0,0.0
1480126556.0,286047063.7,N,0.0,0.0
1480126575.8,286047064.6,N,0.0,0.0
1480126595.6,286047060.6,N,0.0,0.0
1480126615.5,286047061.5,N,0.0,0.0
1480126635.3,286047060.6,N,0.0,0.0
1480126655.2,286047064.6,N,0.0,0.0
1480126675.9,286047063.8,N,0.0,0.0
1480126695.7,286047062.2,N,0.0,0.0
1480126715.6,286047061.7,N,0.0,0.0
1480126735.4,286047061.6,N,0.0,0.0
1480126755.3,286047061.8,N,0.0,0.0
1480126775.1,286047061.3,N,0.0,0.0
1480126776.0,286047061.3,N,0.0,0.0
1480126795.8,286047061.8,N,0.0,0.0
1480126815.7,286047061.8,N,0.0,0.0
1480126835.5,286047063.5,N,0.0,0.0
1480126855.4,286047061.0,N,0.0,0.0
1480126875.2,286047060.5,N,0.0,0.0
1480126895.0,286047062.4,N,0.0,0.0
1480126895.9,286047062.4,N,0.0,0.0
1480126915.8,286047064.7,N,0.0,0.0
1480126935.6,286047065.1,N,0.0,0.0
1480126955.4,286047060.5,N,0.0,0.0
1480126975.3,286047063.1,N,0.0,0.0
1480126995.1,286047062.9,N,0.0,0.0
1480127015.9,286047057.5,N,0.0,0.0
1480127035.7,286047056.6,N,0.0,0.0
1480127055.5,286047054.5,N,0.0,0.0
1480127075.4,286047055.1,N,0.0,0.0
1480127095.2,286047052.8,N,0.0,0.0
1480127115.0,286047054.4,N,0.0,0.0
1480127116.0,286047054.4,N,0.0,0.0
1480127135.8,286047054.6,N,0.0,0.0
1480127155.6,286047054.7,N,0.0,0.0
1480127175.5,286047055.0,N,0.0,0.0
1480127195.3,286047053.1,N,0.0,0.0
1480127215.1,286047051.0,N,0.0,0.0
1480127235.9,286047053.7,N,0.0,0.0
1480127255.7,286047054.9,N,0.0,0.0
1480127275.5,286047054.3,N,0.0,0.0
1480127295.4,286047050.9,N,0.0,0.0
1480127315.2,286047052.1,N,0.0,0.0
1480127335.1,286047052.3,N,0.0,0.0
1480127336.0,286047052.3,N,0.0,0.0
1480127355.8,286047049.7,N,0.0,0.0
1480127375.6,286047050.5,N,0.0,0.0
1480127395.5,286047046.1,N,0.0,0.0
1480127415.3,286047047.3,N,0.0,0.0
1480127435.2,286047049.2,N,0.0,0.0
1480127455.9,286047046.8,N,0.0,0.0
1480127475.7,286047046.4,N,0.0,0.0
1480127495.6,286047045.7,N,0.0,0.0
1480127515.4,286047045.1,N,0.0,0.0
1480127535.2,286047045.8,N,0.0,0.0
1480127555.1,286047045.9,N,0.0,0.0
1480127556.0,286047045.9,N,0.0,0.0
1480127575.8,286047044.1,N,0.0,0.0
1480127595.7,286047043.7,N,0.0,0.0
1480127615.5,286047044.4,N,0.0,0.0
1480127635.3,286047041.5,N,0.0,0.0
1480127655.2,286047039.7,N,0.0,0.0
1480127675.0,286047040.3,N,0.0,0.0
1480127675.9,286047040.3,N,0.0,0.0
1480127695.7,286047040.7,N,0.0,0.0
1480127715.6,286047038.8,N,0.0,0.0
1480127735.4,286047039.6,N,0.0,0.0
1480127755.3,286047037.6,N,0.0,0.0
1480127775.1,286047035.6,N,0.0,0.0
1480127795.8,286047035.0,N,0.0,0.0
1480127815.7,286047036.2,N,0.0,0.0
1480127835.5,286047033.7,N,0.0,0.0
1480127855.4,286047032.2,N,0.0,0.0
1480127875.2,286047032.4,N,0.0,0.0
1480127895.0,286047031.0,N,0.0,0.0
1480127895.9,286047031.0,N,0.0,0.0
1480127915.8,286047029.7,N,0.0,0.0
1480127935.6,286047027.0,N,0.0,0.0
1480127955.4,286047027.5,N,0.0,0.0
1480127975.3,286047025.6,N,0.0,0.0
1480127995.1,286047026.1,N,0.0,0.0
1480128015.9,286047023.9,N,0.0,0.0
1480128035.7,286047023.9,N,0.0,0.0
1480128055.5,286047024.2,N,0.0,0.0
1480128075.4,286047022.2,N,0.0,0.0
1480128095.2,286047023.0,N,0.0,0.0
1480128115.1,286047021.1,N,0.0,0.0
1480128116.0,286047021.1,N,0.0,0.0
1480128135.8,286047019.0,N,0.0,0.0
1480128155.6,286047017.8,N,0.0,0.0
1480128175.5,286047018.6,N,0.0,0.0
1480128195.3,286047016.0,N,0.0,0.0
1480128215.1,286047016.8,N,0.0,0.0
1480128235.9,286047014.6,N,0.0,0.0
1480128255.7,286047015.1,N,0.0,0.0
1480128275.6,286047013.4,N,0.0,0.0
1480128295.4,286047011.1,N,0.0,0.0
1480128315.2,286047012.4,N,0.0,0.0
1480128335.1,286047010.2,N,0.0,0.0
1480128336.0,286047010.2,N,0.0,0.0
1480128355.8,286047008.4,N,0.0,0.0
1480128375.7,286047009.2,N,0.0,0.0
1480128395.5,286047006.8,N,0.0,0.0
1480128415.3,286047007.1,N,0.0,0.0
1480128435.2,286047005.1,N,0.0,0.0
1480128455.0,286047005.6,N,0.0,0.0
1480128455.9,286047005.6,N,0.0,0.0
1480128475.8,286047006.0,N,0.0,0.0
1480128495.6,286047003.2,N,0.0,0.0
1480128515.4,286047003.9,N,0.0,0.0
1480128535.3,286047001.5,N,0.0,0.0
1480128555.1,286047002.4,N,0.0,0.0
1480128575.8,286047000.3,N,0.0,0.0
1480128595.7,286047001.0,N,0.0,0.0
1480128615.5,286047000.5,N,0.0,0.0
1480128635.4,286047001.1,N,0.0,0.0
1480128655.2,286046998.5,N,0.0,0.0
1480128675.0,286046998.7,N,0.0,0.0
1480128675.9,286046998.7,N,0.0,0.0
1480128695.8,286046999.3,N,0.0,0.0
1480128715.6,286046999.1,N,0.0,0.0
1480128735.5,286046996.7,N,0.0,0.0
1480128755.3,286046996.7,N,0.0,0.0
1480128775.1,286046997.4,N,0.0,0.0
1480128795.9,286046997.7,N,0.0,0.0
1480128815.7,286046994.9,N,0.0,0.0
1480128835.5,286046995.6,N,0.0,0.0
1480128855.4,286046995.3,N,0.0,0.0
1480128875.2,286046995.7,N,0.0,0.0
1480128895.0,286046995.9,N,0.0,0.0
1480128896.0,286046995.9,N,0.0,0.0
1480128915.8,286046995.6,N,0.0,0.0
1480128935.6,286046996.2,N,0.0,0.0
1480128955.5,286046993.7,N,0.0,0.0
1480128975.3,286046993.8,N,0.0,0.0
1480128995.1,286046994.2,N,0.0,0.0
1480129015.9,286046994.6,N,0.0,0.0
1480129035.7,286046994.7,N,0.0,0.0
1480129055.6,286046992.4,N,0.0,0.0
1480129075.4,286046992.0,N,0.0,0.0
1480129095.2,286046992.9,N,0.0,0.0
1480129115.1,286046993.2,N,0.0,0.0
1480129116.0,286046993.2,N,0.0,0.0
1480129135.8,286046990.7,N,0.0,0.0
1480129155.7,286046990.9,N,0.0,0.0
1480129175.5,286046991.3,N,0.0,0.0
1480129195.3,286046991.1,N,0.0,0.0
